Home   Weather   Schärding   Past weeks

Flag for Austria Past Weather in Schärding, Upper Austria, Austria — Yesterday and Last 2 Weeks

Now
50 °F

Cool.


Feels Like: 50 °F
Forecast: 56 / 76 °F
Wind: No wind

Location: Rohrbach

Current Time: Sep 1, 2016 at 7:38:29 AM

Latest Report: Sep 1, 2016 at 7:00 AM


Visibility: N/A

Pressure: 30.21 "Hg

Humidity: 88%

Dew Point: 46 °F

Location of SchärdingLocation

Past Weather in Schärding — Graph

°F

Schärding Temperature Yesterday

Maximum temperature yesterday: 76 °F (at 3:00 PM)
Minimum temperature yesterday: 53 °F (at 7:00 AM)
Average temperature yesterday: 64 °F

High & Low Weather Summary for the Past Weeks

 TemperatureHumidityPressure
High83 °F (Aug 27, 3:00 PM)99% (Aug 22, 6:00 AM)30.43 "Hg (Aug 22, 6:00 AM)
Low48 °F (Aug 23, 7:00 AM)34% (Aug 31, 3:00 PM)29.76 "Hg (Aug 18, 4:00 PM)
Average64 °F74%30.09 "Hg
* Reported Aug 17 6:00 AM — Sep 1 6:00 AM, Schärding, Weather by CustomWeather, © 2016

Note: Actual official high and low records may vary slightly from our data, if they occured in-between our weather recording intervals... More about our weather records

Advertising

Schärding Weather History for the Previous 24 Hours

Scroll right to see more
 ConditionsComfort  
Time TempWeatherWind HumidityBarometerVisibility
6:00 AM
Thu, Sep 1
49 °FCool.No wind89%30.21 "HgN/A
5:00 AM50 °FCool.No wind88%30.21 "HgN/A
4:00 AM51 °FCool.1 mph86%30.20 "HgN/A
3:00 AM52 °FCool.No wind85%30.20 "HgN/A
2:00 AM53 °FCool.No wind83%30.19 "HgN/A
1:00 AM55 °FCool.No wind77%30.19 "HgN/A
12:00 AM57 °FCool.No wind74%30.18 "HgN/A
11:00 PM
Wed, Aug 31
60 °FCool.1 mph66%30.16 "HgN/A
10:00 PM62 °FPassing clouds.2 mph58%30.14 "Hg2 mi
9:00 PM64 °FMild.1 mph55%30.13 "HgN/A
8:00 PM67 °FMild.1 mph49%30.10 "HgN/A
7:00 PM72 °FMild.2 mph42%30.08 "HgN/A
6:00 PM74 °FMild.2 mph41%30.08 "HgN/A
5:00 PM75 °FMild.2 mph35%30.08 "HgN/A
4:00 PM75 °FMild.2 mph34%30.09 "HgN/A
3:00 PM76 °FMild.3 mph34%30.10 "HgN/A
2:00 PM74 °FMild.2 mph40%30.12 "HgN/A
1:00 PM73 °FMild.3 mph46%30.14 "HgN/A
12:00 PM70 °FMild.3 mph47%30.16 "HgN/A
11:00 AM68 °FMild.1 mph53%30.16 "HgN/A
10:00 AM65 °FMild.1 mph60%30.18 "HgN/A
9:00 AM58 °FCool.2 mph69%30.21 "HgN/A
8:00 AM54 °FCool.3 mph75%30.23 "HgN/A
7:00 AM53 °FCool.3 mph77%30.24 "HgN/A
Weather by CustomWeather, © 2016

See weather overviewHow to use our weather pages